This is the latest recevied weather packets stored in our database for station/object NQ9F. If no packets are shown the sender has not sent any weather packets the latest 1 day(s).
| Time | Temp. | Humidity | Pressure | Rain* | Wind** | Luminosity | Snow |
|---|---|---|---|---|---|---|---|
| 1778049642 | 13.89° C | 83% | 1010.2 hPa | 0 mm | 2.68 m/s, 36° | 0 W/m² | - |
| 1778049330 | 13.89° C | 84% | 1010.1 hPa | 0 mm | 4.02 m/s, 38° | 0 W/m² | - |
| 1778049027 | 13.89° C | 84% | 1010.1 hPa | 0 mm | 4.47 m/s, 54° | 0 W/m² | - |
| 1778048725 | 13.89° C | 84% | 1010.2 hPa | 0 mm | 4.02 m/s, 23° | 0 W/m² | - |
| 1778048422 | 13.89° C | 84% | 1010.4 hPa | 0 mm | 6.26 m/s, 48° | 0 W/m² | - |
| 1778048118 | 13.89° C | 84% | 1010.4 hPa | 0 mm | 4.02 m/s, 49° | 0 W/m² | - |
| 1778047816 | 13.89° C | 85% | 1010.3 hPa | 0 mm | 1.79 m/s, 13° | 0 W/m² | - |
| 1778047514 | 14.44° C | 85% | 1010.5 hPa | 0 mm | 1.79 m/s, 34° | 0 W/m² | - |
| 1778047211 | 14.44° C | 85% | 1010.2 hPa | 0 mm | 1.79 m/s, 20° | 0 W/m² | - |
| 1778046908 | 14.44° C | 85% | 1010.2 hPa | 0 mm | 2.24 m/s, 5° | 0 W/m² | - |
| 1778046604 | 14.44° C | 85% | 1010.4 hPa | 0 mm | 1.34 m/s, 358° | 0 W/m² | - |
| 1778046301 | 14.44° C | 85% | 1010.3 hPa | 0 mm | 1.79 m/s, 29° | 0 W/m² | - |
| 1778045997 | 14.44° C | 85% | 1010.4 hPa | 0 mm | 1.34 m/s, 7° | 0 W/m² | - |
| 1778045696 | 14.44° C | 85% | 1010.5 hPa | 0 mm | 1.34 m/s, 16° | 0 W/m² | - |
| 1778045394 | 14.44° C | 85% | 1010.2 hPa | 0 mm | 3.13 m/s, 24° | 0 W/m² | - |
| 1778045092 | 14.44° C | 85% | 1010.1 hPa | 0 mm | 3.58 m/s, 7° | 0 W/m² | - |
| 1778044789 | 15° C | 84% | 1010.3 hPa | 0 mm | 2.24 m/s, 26° | 0 W/m² | - |
| 1778044486 | 15° C | 85% | 1010.4 hPa | 0 mm | 1.79 m/s, 355° | 0 W/m² | - |
| 1778044183 | 15° C | 85% | 1010.5 hPa | 0 mm | 3.13 m/s, 11° | 0 W/m² | - |
| 1778043881 | 15° C | 85% | 1010.4 hPa | 0 mm | 4.47 m/s, 4° | 0 W/m² | - |
| 1778043577 | 15° C | 85% | 1010.6 hPa | 0 mm | 1.79 m/s, 352° | 0 W/m² | - |
| 1778043274 | 15° C | 85% | 1010.7 hPa | 0 mm | 1.34 m/s, 22° | 0 W/m² | - |
| 1778042971 | 15° C | 84% | 1010.4 hPa | 0 mm | 2.68 m/s, 358° | 0 W/m² | - |
| 1778042669 | 15° C | 84% | 1010.5 hPa | 0 mm | 2.68 m/s, 347° | 0 W/m² | - |
| 1778042366 | 15° C | 84% | 1010.4 hPa | 0 mm | 2.24 m/s, 358° | 0 W/m² | - |
* Rain latest hour (hover to see other rain measurements)
** Current wind speed in m/s (hover to see current wind gust speed)